TimeAKST,TemperatureF,Dew PointF,Humidity,Sea Level PressureIn,VisibilityMPH,Wind Direction,Wind SpeedMPH,Gust SpeedMPH,PrecipitationIn,Events,Conditions,WindDirDegrees,DateUTC
12:53 AM,30.9,24.1,76,29.25,10.0,North,17.3,23.0,N/A,,Overcast,350,2014-01-11 09:53:00
1:53 AM,30.9,23.0,72,29.24,10.0,North,15.0,24.2,N/A,,Partly Cloudy,350,2014-01-11 10:53:00
3:53 AM,30.0,21.9,72,29.21,10.0,NNW,17.3,28.8,N/A,,Clear,340,2014-01-11 12:53:00
4:53 AM,30.0,21.0,69,29.19,10.0,NNW,16.1,23.0,N/A,,Partly Cloudy,340,2014-01-11 13:53:00
5:53 AM,28.9,21.0,72,29.18,10.0,NNW,17.3,25.3,N/A,,Clear,340,2014-01-11 14:53:00
6:53 AM,28.9,21.0,72,29.16,10.0,North,10.4,24.2,N/A,,Clear,10,2014-01-11 15:53:00
7:53 AM,28.0,19.9,72,29.15,10.0,North,13.8,18.4,N/A,,Clear,10,2014-01-11 16:53:00
8:53 AM,27.0,19.9,75,29.14,10.0,NNE,11.5,23.0,N/A,,Clear,20,2014-01-11 17:53:00
9:53 AM,27.0,19.0,72,29.13,10.0,North,10.4,19.6,N/A,,Clear,10,2014-01-11 18:53:00
10:53 AM,27.0,19.0,72,29.13,10.0,North,13.8,25.3,N/A,,Clear,10,2014-01-11 19:53:00
11:53 AM,26.1,19.0,75,29.13,10.0,North,9.2,17.3,N/A,,Clear,10,2014-01-11 20:53:00
12:53 PM,27.0,19.0,72,29.12,10.0,North,10.4,18.4,N/A,,Clear,360,2014-01-11 21:53:00
1:53 PM,27.0,19.0,72,29.11,10.0,North,10.4,-,N/A,,Clear,10,2014-01-11 22:53:00
2:53 PM,25.0,19.0,78,29.09,10.0,North,15.0,19.6,N/A,,Clear,360,2014-01-11 23:53:00
3:53 PM,24.1,18.0,77,29.09,10.0,North,10.4,-,N/A,,Clear,10,2014-01-12 00:53:00
4:53 PM,24.1,18.0,77,29.10,10.0,North,11.5,18.4,N/A,,Clear,360,2014-01-12 01:53:00
5:53 PM,23.0,17.1,78,29.08,10.0,NNE,11.5,-,N/A,,Clear,20,2014-01-12 02:53:00
6:53 PM,21.9,17.1,82,29.08,10.0,North,10.4,-,N/A,,Clear,10,2014-01-12 03:53:00
7:53 PM,19.9,16.0,85,29.10,10.0,North,8.1,-,N/A,,Clear,10,2014-01-12 04:53:00
8:53 PM,19.9,15.1,81,29.09,10.0,North,8.1,-,N/A,,Clear,10,2014-01-12 05:53:00
9:53 PM,19.9,15.1,81,29.10,10.0,North,8.1,-,N/A,,Clear,10,2014-01-12 06:53:00
10:53 PM,19.9,15.1,81,29.10,10.0,North,8.1,-,N/A,,Mostly Cloudy,10,2014-01-12 07:53:00
11:53 PM,19.9,15.1,81,29.10,10.0,North,9.2,-,N/A,,Overcast,10,2014-01-12 08:53:00